Weather Roundup
Issued by NWS Chicago, IL

Home | Current Version | Previous Version | Graphics & Text | Print | Product List | Glossary Off
Versions: 1 2 3 4 5 6 7 8 9 10 11 12 13 14 15 16 17 18 19 20 21 22 23 24 25 26 27 28 29 30 31 32 33 34 35 36 37 38 39 40 41 42 43 44 45 46 47 48 49 50

000
NZUS59 KLOT 301312
HRRLOT

CHICAGO AREA WEATHER ROUNDUP
NATIONAL WEATHER SERVICE CHICAGO/ROMEOVILLE IL
800 AM CDT THU JUL 30 2015

NOTE: "FAIR" INDICATES FEW OR NO CLOUDS BELOW 12,000 FEET WITH NO
SIGNIFICANT WEATHER AND/OR OBSTRUCTIONS TO VISIBILITY.

* THESE STATIONS ARE NOT UNDER NWS QUALITY CONTROL. THEY ALSO MAY NOT
  REPORT WEATHER SUCH AS PRECIPITATION OR FOG.

ILZ005-006-012>014-019>023-301400-
NORTHEAST ILLINOIS

CITY           SKY/WX    TMP DP  RH WIND       PRES   REMARKS
OHARE          SUNNY     71  59  65 W8        30.05S
MIDWAY         SUNNY     74  58  57 W12       30.05S
AURORA         SUNNY     68  61  78 W6        30.08R
LANSING*       SUNNY     72  57  59 W6        30.07S
JOLIET*        SUNNY     71  62  74 W3        30.08S
WAUKEGAN       SUNNY     71  58  63 VRB6      30.03R
DUPAGE AIRPORT SUNNY     70  59  68 W3        30.06S
WHEELING       SUNNY     72  57  59 W6        30.06R
KANKAKEE*      SUNNY     68  63  82 W7        30.09S
MORRIS*        SUNNY     69  62  81 W8        30.07S
LEWIS AIRPORT* SUNNY     69  60  73 W7        30.07F
NORTHERLY IS     N/A     73  57  57 W13         N/A
$$

WIZ051-052-058>065-066-070>072-301400-
SOUTHEAST WISCONSIN

CITY           SKY/WX    TMP DP  RH WIND       PRES   REMARKS
MILWAUKEE      SUNNY     73  55  53 NW10      30.01S
KENOSHA*       SUNNY     70  59  68 W8        30.03S
RACINE*        SUNNY     71  57  61 VRB7      30.03S
BURLINGTON     SUNNY     68  56  65 W10       30.03S
WAUKESHA       SUNNY     68  55  64 W14       30.03S
WEST BEND      SUNNY     70  54  56 W9        30.01R
$$

INZ001>003-010>013-019-020-301400-
NORTHWEST INDIANA

CITY           SKY/WX    TMP DP  RH WIND       PRES   REMARKS
GARY*          SUNNY     73  61  64 W10       30.06S
MICHIGAN CITY* NOT AVBL
RENSSELAER*    NOT AVBL
VALPARAISO     SUNNY     71  59  65 W9        30.06S
$$

LMZ740>746-301400-
SOUTHERN LAKE MICHIGAN

STATION/POSITION TIME  SKY/WX   TEMP WIND        PRES    VSBY
                                AIR  DIR/SP/G
                 (UTC)          (F)  (DEG/KT/KT) (MB)    (MI)
HARRISON CRIB    1200            70  270/ 15/ 21   N/A
BURNHAM HARBOR   1300            73  270/  7/ 12   N/A
CALUMET HARBOR   1200            69                N/A
BURNS HARBOR     1200            72  270/ 14/ 17 1017.6R
MICHIGAN CITY    1200            72  250/ 17/ 19   N/A
$$

ABBREVIATIONS USED IN REMARKS
   TC - TEMPERATURE IN CELSIUS
  WCI - WIND CHILL INDEX
   HX - HEAT INDEX
  VSB - VISIBILITY
$$



USA.gov is the U.S. government's official web portal to all federal, state and local government web resources and services.